"2010-11-20 00:00:00",351661,3.226,121.1,5.976,1.168,6.925,101.3359,2.708,3.951,66.05,0,109.7,13.54,3.47,83.1
"2010-11-20 00:00:30",351662,2.286,123.3,4.961,0.904,4.556,101.3339,2.703,3.776,65.9,0,109.7,13.54,3.46,85.3
"2010-11-20 00:01:00",351663,3.376,138.9,6.384,1.226,6.13,101.3605,2.771,3.725,65.82,0,109.7,13.54,3.53,100.9
"2010-11-20 00:01:30",351664,3.937,147.2,7.28,1.237,7.045,101.3795,2.819,3.935,65.91,0,109.7,13.54,3.58,109.2
"2010-11-20 00:02:00",351665,4.373,155.7,7.83,1.068,7.789,101.4076,2.891,3.895,65.71,0,109.7,13.54,3.65,117.7
"2010-11-20 00:02:30",351666,2.792,151.9,7.299,1.181,5.486,101.4183,2.918,3.868,65.61,0,109.7,13.54,3.68,113.9
"2010-11-20 00:03:00",351667,3.468,151,8.79,1.237,6.729,101.4268,2.94,3.91,65.43,0,109.7,13.54,3.70,113.0
"2010-11-20 00:03:30",351668,2.772,118.5,14.31,1.203,5.051,101.4002,2.872,3.86,65.69,0,109.7,13.53,3.63,80.5
"2010-11-20 00:04:00",351669,1.592,90.7,5.778,0.45,3.946,101.3365,2.709,3.798,66.17,0,109.7,13.57,3.47,52.7
"2010-11-20 00:04:30",351670,2.975,87,6.282,1.201,5.715,101.2581,2.509,3.759,66.8,0,109.7,13.53,3.27,49.0
"2010-11-20 00:05:00",351671,2.808,86.6,6.301,1.265,5.837,101.182,2.315,3.717,67.55,0,109.7,13.53,3.08,48.6
"2010-11-20 00:05:30",351672,2.105,84.5,4.913,1.021,3.908,101.1232,2.165,3.421,67.91,0,109.7,13.53,2.92,46.5
"2010-11-20 00:06:00",351673,1.803,85.7,4.681,0.545,3.367,101.066,2.019,3.357,68.36,0,109.7,13.53,2.78,47.7
"2010-11-20 00:06:30",351674,3.932,98.2,5.334,1.024,6.491,101.0216,1.906,3.261,68.83,0,109.7,13.53,2.66,60.2
"2010-11-20 00:07:00",351675,3.339,100.2,5.83,1.233,5.077,100.9942,1.836,3.067,69.43,0,109.7,13.53,2.59,62.2
"2010-11-20 00:07:30",351676,2.692,94.9,4.432,0.895,4.115,100.9707,1.776,3.147,70.2,0,109.7,13.53,2.53,56.9
"2010-11-20 00:08:00",351677,4.068,99.8,6.522,1.171,6.188,100.9713,1.778,3,70.42,0,109.7,13.53,2.54,61.8
"2010-11-20 00:08:30",351678,3.935,106,6.247,1.166,6.419,100.9735,1.783,2.964,70.48,0,109.7,13.53,2.54,68.0
"2010-11-20 00:09:00",351679,2.041,100.7,1.255,0.474,3.283,101.0022,1.856,2.875,70.38,0,109.7,13.54,2.61,62.7
"2010-11-20 00:09:30",351680,2.993,111.2,6.839,1.226,5.84,101.0251,1.915,2.982,70.33,0,109.7,13.54,2.67,73.2
"2010-11-20 00:10:00",351681,2.59,108.6,7.67,1.274,6.023,101.0509,1.981,3.059,70.23,0,109.7,13.54,2.74,70.6
"2010-11-20 00:10:30",351682,2.412,107.6,6.511,1.279,6.167,101.0792,2.053,3.01,70.01,0,109.7,13.54,2.81,69.6
"2010-11-20 00:11:00",351683,1.138,108,4.353,0.806,3.681,101.0868,2.072,2.949,69.79,0,109.7,13.54,2.83,70.0
"2010-11-20 00:11:30",351684,1.9,125,6.22,1.224,5.214,101.1091,2.129,3.06,69.72,0,109.7,13.54,2.89,87.0
"2010-11-20 00:12:00",351685,1.904,139.2,8.59,1.253,5.151,101.1179,2.152,3.095,69.6,0,109.7,13.54,2.91,101.2
"2010-11-20 00:12:30",351686,1.833,157.1,13.83,1.27,5.162,101.1423,2.214,3.136,69.4,0,109.7,13.54,2.97,119.1
"2010-11-20 00:13:00",351687,2.387,176.5,7.622,1.214,4.929,101.1709,2.287,3.026,68.99,0,109.7,13.54,3.05,138.5
"2010-11-20 00:13:30",351688,3.063,186.4,7.266,1.314,6.455,101.2076,2.381,3.302,68.87,0,109.7,13.54,3.14,148.4
"2010-11-20 00:14:00",351689,2.71,185.9,6.232,1.27,6.554,101.2436,2.472,3.383,68.52,0,109.7,13.55,3.23,147.9
"2010-11-20 00:14:30",351690,2.623,184.3,6.675,1.282,5.883,101.2813,2.568,3.278,67.97,0,109.7,13.54,3.33,146.3
"2010-11-20 00:15:00",351691,2.187,181.8,4.966,1.03,5.427,101.313,2.649,3.461,67.78,0,109.7,13.55,3.41,143.8
"2010-11-20 00:15:30",351692,3.107,189.8,6.987,1.259,7.568,101.3291,2.691,3.629,67.59,0,109.7,13.55,3.45,151.8
"2010-11-20 00:16:00",351693,2.137,177.8,7.644,1.249,5.321,101.3574,2.763,3.443,67.09,0,109.7,13.55,3.52,139.8
"2010-11-20 00:16:30",351694,2.122,177,5.505,1.234,5.541,101.3591,2.767,3.572,66.98,0,109.7,13.55,3.53,139.0
"2010-11-20 00:17:00",351695,2,176.2,8.31,1.272,5.937,101.3727,2.802,3.647,66.84,0,109.7,13.55,3.56,138.2
"2010-11-20 00:17:30",351696,2.282,184.7,7.142,1.275,5.807,101.3879,2.841,3.569,66.62,0,109.6,13.55,3.60,146.7
"2010-11-20 00:18:00",351697,2.124,187,5.238,1.266,6.467,101.3933,2.854,3.75,66.61,0,109.6,13.55,3.62,149.0
"2010-11-20 00:18:30",351698,1.07,179.6,2.314,0.08,4.37,101.4213,2.926,3.613,66.26,0,109.6,13.56,3.69,141.6
"2010-11-20 00:19:00",351699,2.522,188.1,7.717,1.253,6.748,101.4329,2.956,3.882,66.26,0,109.6,13.56,3.72,150.1
"2010-11-20 00:19:30",351700,3.242,187.1,6.928,1.131,7.804,101.4496,2.998,3.928,66.07,0,109.6,13.55,3.76,149.1
"2010-11-20 00:20:00",351701,1.666,177.7,4.046,0.448,4.04,101.4601,3.025,3.766,65.7,0,109.6,13.56,3.79,139.7
"2010-11-20 00:20:30",351702,2.498,182,8.15,1.232,6.029,101.4607,3.026,3.936,65.64,0,109.6,13.54,3.79,144.0
"2010-11-20 00:21:00",351703,1.785,179,5.446,0.825,4.766,101.4799,3.075,3.941,65.45,0,109.6,13.54,3.84,141.0
"2010-11-20 00:21:30",351704,2.015,180.9,4.717,0.864,4.612,101.494,3.112,3.947,65.32,0,109.6,13.54,3.87,142.9
"2010-11-20 00:22:00",351705,3.204,182.7,7.38,1.254,7.919,101.494,3.112,3.993,65.2,0,109.6,13.55,3.87,144.7
"2010-11-20 00:22:30",351706,3.037,181.6,7.711,1.289,7.53,101.4898,3.101,4.019,65.18,0,109.6,13.54,3.86,143.6
"2010-11-20 00:23:00",351707,3.171,177.9,7.48,1.236,6.927,101.4802,3.076,4.121,65.23,0,109.6,13.54,3.84,139.9
"2010-11-20 00:23:30",351708,2.787,175.4,6.305,1.264,7.323,101.4632,3.033,4.14,65.23,0,109.6,13.54,3.80,137.4
"2010-11-20 00:24:00",351709,1.691,171.8,3.915,0.881,4.308,101.4601,3.025,4.03,65.14,0,109.6,13.54,3.79,133.8
"2010-11-20 00:24:30",351710,1.872,169.3,5.73,1.006,4.469,101.4601,3.025,3.906,65.03,0,109.6,13.55,3.79,131.3
"2010-11-20 00:25:00",351711,2.525,172.3,9.22,1.201,5.128,101.4601,3.025,3.895,65.05,0,109.6,13.55,3.79,134.3
"2010-11-20 00:25:30",351712,1.944,172.5,7.246,0.845,5.494,101.4601,3.025,4.052,65.23,0,109.6,13.56,3.79,134.5
"2010-11-20 00:26:00",351713,2.678,183.5,6.466,1.242,7.382,101.4601,3.025,4.061,65.21,0,109.6,13.56,3.79,145.5
"2010-11-20 00:26:30",351714,2.83,191.6,6.896,1.261,7.629,101.4607,3.026,4.108,65.22,0,109.6,13.56,3.79,153.6
"2010-11-20 00:27:00",351715,2.989,200.5,8.06,1.22,7.424,101.4618,3.029,4.113,65.17,0,109.6,13.56,3.79,162.5
"2010-11-20 00:27:30",351716,1.719,206.2,2.412,0.9,3.903,101.4627,3.031,4,65.05,0,109.6,13.56,3.79,168.2
"2010-11-20 00:28:00",351717,1.348,210.8,3.885,0.081,3.101,101.4647,3.037,3.912,64.94,0,109.6,13.59,3.80,172.8
"2010-11-20 00:28:30",351718,1.628,214.5,2.056,0.161,3.575,101.465,3.037,3.899,64.97,0,109.6,13.59,3.80,176.5
"2010-11-20 00:29:00",351719,3.562,224.5,7.046,1.172,7.729,101.4667,3.042,4.061,65.16,0,109.6,13.56,3.80,186.5
"2010-11-20 00:29:30",351720,3.823,224.5,5.367,1.068,8.53,101.4687,3.047,4.145,65.22,0,109.7,13.56,3.81,186.5
"2010-11-20 00:30:00",351721,2.916,209.1,8.87,1.304,7.417,101.4719,3.055,4.135,65.17,0,109.7,13.56,3.82,171.1
"2010-11-20 00:30:30",351722,3.162,200.8,7.662,1.252,7.253,101.4767,3.067,4.141,65.14,0,109.6,13.56,3.83,162.8
"2010-11-20 00:31:00",351723,1.661,182.6,4.639,0.455,4.46,101.5019,3.132,4.073,64.98,0,109.6,13.6,3.89,144.6
"2010-11-20 00:31:30",351724,1.404,171.7,3.995,0.127,3.783,101.5104,3.153,3.953,64.79,0,109.6,13.6,3.92,133.7
"2010-11-20 00:32:00",351725,1.236,165.1,2.965,0.096,3.896,101.5099,3.152,3.979,64.73,0,109.6,13.6,3.92,127.1
"2010-11-20 00:32:30",351726,1.548,165.6,7.273,0.967,5.437,101.5145,3.164,4.095,64.78,0,109.6,13.56,3.93,127.6
"2010-11-20 00:33:00",351727,3.004,184.1,8.34,1.02,8.45,101.5167,3.169,4.208,64.87,0,109.6,13.56,3.93,146.1
"2010-11-20 00:33:30",351728,2.187,191.9,6.712,1.251,6.816,101.5184,3.174,4.228,64.83,0,109.6,13.56,3.94,153.9
"2010-11-20 00:34:00",351729,3.054,209.9,5.941,1.125,7.756,101.5173,3.171,4.217,64.77,0,109.7,13.56,3.93,171.9
"2010-11-20 00:34:30",351730,2.451,207.1,7.894,1.196,5.564,101.5179,3.172,4.2,64.77,0,109.6,13.56,3.94,169.1
"2010-11-20 00:35:00",351731,1.472,198.6,0.953,0.041,3.362,101.5043,3.138,3.982,64.54,0,109.6,13.6,3.90,160.6
"2010-11-20 00:35:30",351732,1.516,197.9,1.339,0.036,3.455,101.4854,3.089,3.973,64.62,0,109.6,13.6,3.85,159.9
"2010-11-20 00:36:00",351733,2.659,197.6,5.754,1.299,5.997,101.4848,3.088,4.052,64.78,0,109.6,13.56,3.85,159.6
"2010-11-20 00:36:30",351734,3.13,196,8.11,1.238,7.585,101.4854,3.089,4.182,65.05,0,109.6,13.56,3.85,158.0
"2010-11-20 00:37:00",351735,2.965,186,7.286,1.213,7.041,101.4854,3.089,4.147,65.06,0,109.6,13.56,3.85,148.0
"2010-11-20 00:37:30",351736,3.753,179.5,7.59,1.211,7.686,101.4854,3.089,4.148,65.1,0,109.6,13.56,3.85,141.5
"2010-11-20 00:38:00",351737,4.025,178.1,5.324,1.111,8.05,101.4865,3.092,4.135,65.11,0,109.6,13.56,3.86,140.1
"2010-11-20 00:38:30",351738,2.603,163.7,4.58,0.825,4.032,101.4882,3.097,3.942,64.84,0,109.6,13.56,3.86,125.7
"2010-11-20 00:39:00",351739,2.451,162.1,1.34,0.06,3.694,101.4894,3.1,3.941,64.81,0,109.6,13.59,3.86,124.1
"2010-11-20 00:39:30",351740,3.481,169.2,7.313,1.26,6.549,101.4882,3.097,4.084,64.95,0,109.6,13.56,3.86,131.2
"2010-11-20 00:40:00",351741,3.56,172.9,6.436,1.258,7.233,101.4874,3.095,4.147,65.05,0,109.6,13.56,3.86,134.9
"2010-11-20 00:40:30",351742,3.684,177.4,7.159,1.19,7.881,101.4789,3.073,4.156,65.12,0,109.6,13.56,3.84,139.4
"2010-11-20 00:41:00",351743,3.259,174.9,6.279,1.22,7.394,101.4596,3.024,4.139,65.12,0,109.6,13.56,3.79,136.9
"2010-11-20 00:41:30",351744,2.57,171.6,7.58,1.289,5.734,101.452,3.004,3.937,65.03,0,109.6,13.56,3.77,133.6
"2010-11-20 00:42:00",351745,1.175,156,5.06,0.083,3.284,101.4257,2.937,3.841,65.09,0,109.6,13.6,3.70,118.0
"2010-11-20 00:42:30",351746,1.18,149.9,3.533,0.057,3.305,101.4212,2.926,3.845,65.26,0,109.6,13.6,3.69,111.9
"2010-11-20 00:43:00",351747,2.425,150.6,7.666,1.249,5.637,101.394,2.856,3.914,65.49,0,109.6,13.57,3.62,112.6
"2010-11-20 00:43:30",351748,2.595,155,7.118,1.24,6.025,101.3866,2.837,3.872,65.68,0,109.6,13.57,3.60,117.0
"2010-11-20 00:44:00",351749,3.251,165.1,6.926,1.222,7.658,101.3866,2.837,3.993,65.89,0,109.6,13.57,3.60,127.1
"2010-11-20 00:44:30",351750,3.702,170.2,4.923,1.157,8.57,101.3863,2.837,4.002,65.98,0,109.7,13.57,3.60,132.2
"2010-11-20 00:45:00",351751,2.98,168.8,6.272,1.255,6.475,101.3884,2.842,3.792,65.75,0,109.7,13.57,3.60,130.8
"2010-11-20 00:45:30",351752,1.758,165.5,1.091,0.071,3.942,101.3906,2.848,3.765,65.72,0,109.6,13.6,3.61,127.5
"2010-11-20 00:46:00",351753,2.081,173.8,5.514,0.86,4.489,101.3974,2.865,3.743,65.72,0,109.6,13.57,3.63,135.8
"2010-11-20 00:46:30",351754,2.664,180,6.033,1.259,6.208,101.409,2.895,3.849,65.78,0,109.6,13.57,3.66,142.0
"2010-11-20 00:47:00",351755,2.1,181.8,7.685,1.112,5.477,101.4144,2.908,3.867,65.76,0,109.7,13.57,3.67,143.8
"2010-11-20 00:47:30",351756,3.229,189.6,6.746,1.102,8.27,101.3985,2.868,3.94,65.84,0,109.7,13.57,3.63,151.6
"2010-11-20 00:48:00",351757,2.259,190.5,5.742,1.168,6.355,101.3901,2.846,3.875,65.85,0,109.7,13.57,3.61,152.5
"2010-11-20 00:48:30",351758,2.31,193.4,7.613,1.218,6.342,101.3898,2.845,3.84,65.87,0,109.7,13.57,3.61,155.4
"2010-11-20 00:49:00",351759,1.374,185.4,3.551,0.639,3.95,101.3918,2.851,3.694,65.75,0,109.7,13.57,3.61,147.4
"2010-11-20 00:49:30",351760,2.224,183.4,6.584,1.192,5.712,101.3915,2.85,3.786,65.85,0,109.6,13.57,3.61,145.4
"2010-11-20 00:50:00",351761,2.212,182.3,6.251,1.191,5.936,101.3901,2.846,3.823,65.94,0,109.7,13.57,3.61,144.3
"2010-11-20 00:50:30",351762,1.48,172.1,1.941,0.035,3.868,101.3915,2.85,3.724,65.88,0,109.7,13.61,3.61,134.1
"2010-11-20 00:51:00",351763,2.982,177.9,6.64,1.251,7.064,101.3907,2.848,3.929,66.13,0,109.7,13.57,3.61,139.9
"2010-11-20 00:51:30",351764,3.475,179.4,6.221,1.081,7.801,101.3912,2.849,3.818,66.03,0,109.7,13.57,3.61,141.4
"2010-11-20 00:52:00",351765,2.622,175.1,6.341,1.168,6.153,101.3927,2.853,3.837,66.03,0,109.7,13.57,3.61,137.1
"2010-11-20 00:52:30",351766,2.225,175.2,4.352,1.029,4.912,101.3907,2.848,3.725,65.89,0,109.7,13.56,3.61,137.2
"2010-11-20 00:53:00",351767,2.659,185.6,7.673,1.311,6.203,101.3864,2.837,3.846,66.05,0,109.7,13.56,3.60,147.6
"2010-11-20 00:53:30",351768,1.694,187.1,8.07,0.885,4.665,101.3757,2.809,3.785,66.04,0,109.7,13.56,3.57,149.1
"2010-11-20 00:54:00",351769,1.145,193.7,3.675,0.162,3.604,101.3604,2.77,3.746,66.02,0,109.6,13.6,3.53,155.7
"2010-11-20 00:54:30",351770,1.797,200,6.803,1.241,5.403,101.3584,2.765,3.735,66,0,109.7,13.56,3.53,162.0
"2010-11-20 00:55:00",351771,1.669,198.4,6.44,1.254,5.749,101.3476,2.738,3.817,66.14,0,109.7,13.56,3.50,160.4
"2010-11-20 00:55:30",351772,1.806,195.6,5.75,1.279,6.348,101.3253,2.681,3.711,66.14,0,109.6,13.56,3.44,157.6
"2010-11-20 00:56:00",351773,1.708,198.3,5.258,1.231,6.383,101.3236,2.677,3.699,66.32,0,109.7,13.56,3.44,160.3
"2010-11-20 00:56:30",351774,1.521,194.4,6.561,1.224,5.536,101.3086,2.638,3.674,66.39,0,109.7,13.57,3.40,156.4
"2010-11-20 00:57:00",351775,1.613,195.9,6.048,1.228,5.667,101.2922,2.596,3.592,66.43,0,109.7,13.57,3.36,157.9
"2010-11-20 00:57:30",351776,0.58,184,3.187,0.034,3.561,101.2908,2.593,3.568,66.53,0,109.6,13.61,3.35,146.0
"2010-11-20 00:58:00",351777,1.163,183.1,4.668,1.094,4.398,101.2902,2.591,3.5,66.55,0,109.6,13.57,3.35,145.1
"2010-11-20 00:58:30",351778,1.054,175.9,6.498,0.964,4.484,101.2741,2.55,3.578,66.75,0,109.7,13.57,3.31,137.9
"2010-11-20 00:59:00",351779,1.672,168.2,12.05,1.196,4.97,101.2571,2.507,3.485,66.77,0,109.7,13.58,3.27,130.2
"2010-11-20 00:59:30",351780,2.101,154.4,6.336,1.297,5.76,101.2568,2.506,3.616,67,0,109.6,13.58,3.27,116.4
"2010-11-20 01:00:00",351781,1.318,143.4,4.176,0.784,3.961,101.2568,2.506,3.468,66.97,0,109.6,13.58,3.27,105.4
"2010-11-20 01:00:30",351782,2.428,143.9,6.918,1.272,5.522,101.2568,2.506,3.544,67.07,0,109.7,13.58,3.27,105.9
"2010-11-20 01:01:00",351783,3.073,146.8,6.597,1.133,6.718,101.2565,2.505,3.567,67.15,0,109.6,13.58,3.27,108.8
"2010-11-20 01:01:30",351784,1.846,145.3,7.054,1.109,4.892,101.2392,2.461,3.527,67.23,0,109.6,13.58,3.22,107.3
"2010-11-20 01:02:00",351785,1.423,149.1,5.295,1.011,4.167,101.2228,2.419,3.451,67.24,0,109.6,13.58,3.18,111.1
"2010-11-20 01:02:30",351786,1.693,156.7,5.426,1.288,4.794,101.2228,2.419,3.367,67.27,0,109.6,13.58,3.18,118.7
"2010-11-20 01:03:00",351787,1.173,167.2,5.006,1.118,4.265,101.2228,2.419,3.343,67.32,0,109.6,13.58,3.18,129.2
"2010-11-20 01:03:30",351788,1.643,179.6,6.817,1.251,6.567,101.2225,2.419,3.443,67.52,0,109.6,13.58,3.18,141.6
"2010-11-20 01:04:00",351789,0.377,183.5,3.279,0.033,4.681,101.2186,2.409,3.287,67.43,0,109.6,13.62,3.17,145.5
"2010-11-20 01:04:30",351790,0.891,182.9,5.521,1.081,5.752,101.2149,2.399,3.372,67.6,0,109.7,13.58,3.16,144.9
"2010-11-20 01:05:00",351791,2.031,175.7,7.669,1.204,7.059,101.2101,2.387,3.442,67.68,0,109.7,13.58,3.15,137.7
"2010-11-20 01:05:30",351792,0.907,153.6,4.904,0.952,4.294,101.2024,2.367,3.413,67.72,0,109.7,13.58,3.13,115.6
"2010-11-20 01:06:00",351793,1.268,148.7,5.77,1.183,4.398,101.2027,2.368,3.376,67.76,0,109.7,13.58,3.13,110.7
"2010-11-20 01:06:30",351794,0.96,144.2,3.8,0.871,3.194,101.2084,2.383,3.285,67.67,0,109.7,13.58,3.14,106.2
"2010-11-20 01:07:00",351795,0.661,148.4,3.404,0.011,2.99,101.2208,2.414,3.255,67.66,0,109.6,13.62,3.17,110.4
"2010-11-20 01:07:30",351796,0.997,153.5,5.025,0.789,4.173,101.2228,2.419,3.422,67.81,0,109.7,13.59,3.18,115.5
"2010-11-20 01:08:00",351797,1.844,155.5,7.197,1.203,5.213,101.2234,2.421,3.273,67.55,0,109.7,13.59,3.18,117.5
"2010-11-20 01:08:30",351798,1.356,147.6,4.115,0.869,4.09,101.2423,2.469,3.336,67.52,0,109.7,13.59,3.23,109.6
"2010-11-20 01:09:00",351799,2.579,149.6,7.084,1.244,6.876,101.2477,2.483,3.553,67.7,0,109.7,13.58,3.24,111.6
"2010-11-20 01:09:30",351800,2.706,148.3,5.654,1.257,6.582,101.2412,2.466,3.566,67.63,0,109.7,13.58,3.23,110.3
"2010-11-20 01:10:00",351801,1.78,145.1,6.83,1.193,4.3,101.2307,2.44,3.387,67.44,0,109.7,13.58,3.20,107.1
"2010-11-20 01:10:30",351802,1.062,141.3,3.382,0.473,3.408,101.2245,2.424,3.374,67.45,0,109.7,13.61,3.18,103.3
"2010-11-20 01:11:00",351803,1.797,147.2,6.702,1.252,4.37,101.2228,2.419,3.33,67.39,0,109.6,13.58,3.18,109.2
"2010-11-20 01:11:30",351804,1.148,148.6,5.051,0.776,4.023,101.2228,2.419,3.462,67.57,0,109.6,13.58,3.18,110.6
"2010-11-20 01:12:00",351805,1.831,154.9,5.176,1.248,5.126,101.2223,2.418,3.33,67.49,0,109.6,13.58,3.18,116.9
"2010-11-20 01:12:30",351806,1.884,160.4,4.898,1.215,5.633,101.2033,2.37,3.376,67.61,0,109.7,13.58,3.13,122.4
"2010-11-20 01:13:00",351807,2.183,165.2,7.025,1.245,6.378,101.19,2.336,3.538,67.85,0,109.6,13.58,3.10,127.2
"2010-11-20 01:13:30",351808,2.743,164.2,5.79,1.155,6.763,101.1886,2.332,3.426,67.88,0,109.6,13.58,3.09,126.2
"2010-11-20 01:14:00",351809,1.008,145.4,2.971,0.211,2.968,101.1795,2.309,3.216,67.77,0,109.6,13.59,3.07,107.4
"2010-11-20 01:14:30",351810,1.063,140.5,1.446,0.039,2.853,101.1688,2.281,3.191,67.83,0,109.6,13.62,3.04,102.5
"2010-11-20 01:15:00",351811,2.391,140.3,5.249,1.273,5.294,101.1628,2.266,3.283,67.94,0,109.6,13.59,3.03,102.3
"2010-11-20 01:15:30",351812,1.771,133,5.454,0.981,4.46,101.1597,2.258,3.353,68.12,0,109.6,13.59,3.02,95.0
"2010-11-20 01:16:00",351813,2.654,135.3,6.739,1.238,5.682,101.1591,2.257,3.27,68.06,0,109.6,13.59,3.02,97.3
"2010-11-20 01:16:30",351814,3.25,141.3,5.625,1.217,7.271,101.1597,2.258,3.485,68.31,0,109.6,13.59,3.02,103.3
"2010-11-20 01:17:00",351815,3.191,141.4,6.028,1.187,6.836,101.1594,2.258,3.42,68.25,0,109.6,13.59,3.02,103.4
"2010-11-20 01:17:30",351816,2.177,138.5,5.105,1.098,4.247,101.1577,2.253,3.241,68.08,0,109.6,13.59,3.01,100.5
"2010-11-20 01:18:00",351817,1.444,134.9,0.723,0.055,2.837,101.1549,2.246,3.154,68.04,0,109.6,13.62,3.01,96.9
"2010-11-20 01:18:30",351818,1.312,134,1.052,0.036,3.223,101.1549,2.246,3.231,68.18,0,109.6,13.62,3.01,96.0
"2010-11-20 01:19:00",351819,2.92,139.3,6.99,1.194,6.362,101.1549,2.246,3.238,68.24,0,109.6,13.59,3.01,101.3
"2010-11-20 01:19:30",351820,2.802,137.9,5.514,1.253,6.732,101.1529,2.241,3.344,68.41,0,109.6,13.59,3.00,99.9
"2010-11-20 01:20:00",351821,3.151,135,5.278,1.074,7.285,101.1453,2.221,3.337,68.47,0,109.6,13.59,2.98,97.0
"2010-11-20 01:20:30",351822,3.167,127.8,6.309,1.098,6.946,101.1374,2.201,3.304,68.48,0,109.6,13.59,2.96,89.8
"2010-11-20 01:21:00",351823,1.642,114.4,5.036,0.882,4.089,101.1311,2.185,3.183,68.42,0,109.6,13.59,2.94,76.4
"2010-11-20 01:21:30",351824,1.272,110.2,1.436,0.031,3.032,101.1221,2.162,3.071,68.36,0,109.6,13.62,2.92,72.2
"2010-11-20 01:22:00",351825,2.299,118.2,6.463,1.163,5.233,101.1229,2.164,3.183,68.52,0,109.6,13.59,2.92,80.2
"2010-11-20 01:22:30",351826,1.292,117.3,5.013,0.635,4.074,101.1229,2.164,3.196,68.56,0,109.6,13.59,2.92,79.3
"2010-11-20 01:23:00",351827,2.796,125.6,6.081,1.23,6.787,101.1241,2.167,3.253,68.67,0,109.6,13.59,2.93,87.6
"2010-11-20 01:23:30",351828,2.991,125.5,6.633,1.119,6.64,101.1258,2.172,3.232,68.7,0,109.6,13.59,2.93,87.5
"2010-11-20 01:24:00",351829,3.011,127.4,5.716,1.117,6.872,101.1269,2.175,3.275,68.78,0,109.6,13.59,2.93,89.4
"2010-11-20 01:24:30",351830,1.531,125.8,2.796,0.854,3.473,101.1269,2.175,3.065,68.6,0,109.6,13.59,2.93,87.8
"2010-11-20 01:25:00",351831,1.08,131.1,1.628,0.065,2.651,101.1284,2.178,3.016,68.57,0,109.6,13.62,2.94,93.1
"2010-11-20 01:25:30",351832,1.819,138.2,5.945,1.127,4.601,101.1278,2.177,3.175,68.75,0,109.6,13.59,2.94,100.2
"2010-11-20 01:26:00",351833,1.635,138.6,4.375,1.021,4.04,101.1284,2.178,3.1,68.7,0,109.6,13.59,2.94,100.6
"2010-11-20 01:26:30",351834,2.757,149.1,7.129,1.185,6.962,101.1301,2.183,3.282,68.86,0,109.6,13.59,2.94,111.1
"2010-11-20 01:27:00",351835,2.922,145,6.642,1.142,6.748,101.1318,2.187,3.191,68.76,0,109.6,13.59,2.95,107.0
"2010-11-20 01:27:30",351836,2.765,143.8,5.422,1.176,6.522,101.1318,2.187,3.306,68.85,0,109.6,13.59,2.95,105.8
"2010-11-20 01:28:00",351837,2.75,137,8.08,1.188,5.584,101.1335,2.191,3.16,68.67,0,109.6,13.59,2.95,99.0
"2010-11-20 01:28:30",351838,1.043,125.4,3.164,0.052,2.621,101.1304,2.183,3.049,68.53,0,109.6,13.62,2.94,87.4
"2010-11-20 01:29:00",351839,1.056,122.3,4.174,0.085,2.738,101.1312,2.186,3.043,68.48,0,109.6,13.62,2.95,84.3
"2010-11-20 01:29:30",351840,1.567,135.5,7.236,1.175,4.683,101.1349,2.195,3.205,68.7,0,109.6,13.59,2.95,97.5
"2010-11-20 01:30:00",351841,2.152,133.7,7.177,1.286,5.702,101.1367,2.2,3.204,68.71,0,109.6,13.59,2.96,95.7
"2010-11-20 01:30:30",351842,1.933,139.1,7.278,1.238,5.334,101.1361,2.198,3.218,68.71,0,109.6,13.6,2.96,101.1
"2010-11-20 01:31:00",351843,2.832,148.6,6.447,1.122,7.083,101.1387,2.205,3.282,68.78,0,109.6,13.6,2.96,110.6
"2010-11-20 01:31:30",351844,2.503,143.2,6.073,1.224,5.823,101.1378,2.202,3.291,68.77,0,109.6,13.6,2.96,105.2
"2010-11-20 01:32:00",351845,1.703,132.1,6.743,1,3.576,101.1288,2.179,3.022,68.49,0,109.6,13.6,2.94,94.1
"2010-11-20 01:32:30",351846,1.131,127.9,1.615,0.076,2.583,101.1067,2.123,3.015,68.53,0,109.6,13.63,2.88,89.9
"2010-11-20 01:33:00",351847,1.563,131.5,7.054,0.973,4.146,101.1064,2.122,3.175,68.74,0,109.6,13.6,2.88,93.5
"2010-11-20 01:33:30",351848,2.368,130.2,8.96,1.24,5.193,101.1078,2.126,3.046,68.69,0,109.6,13.6,2.89,92.2
"2010-11-20 01:34:00",351849,2.788,138.4,5.292,1.207,6.965,101.107,2.124,3.226,68.95,0,109.6,13.6,2.88,100.4
"2010-11-20 01:34:30",351850,2.655,139.5,6.236,1.191,6.68,101.0948,2.093,3.179,69,0,109.6,13.6,2.85,101.5
"2010-11-20 01:35:00",351851,1.491,133.6,5.723,1.113,4.369,101.0832,2.063,3.105,69.05,0,109.6,13.6,2.82,95.6
"2010-11-20 01:35:30",351852,1.172,132.1,5.213,0.845,3.375,101.0756,2.044,3.048,69.07,0,109.6,13.6,2.80,94.1
"2010-11-20 01:36:00",351853,0.869,125.2,0.98,0.02,2.36,101.0753,2.043,2.914,68.97,0,109.6,13.63,2.80,87.2
"2010-11-20 01:36:30",351854,1.282,130,6.363,0.931,3.551,101.0699,2.029,2.96,69.13,0,109.6,13.6,2.79,92.0
"2010-11-20 01:37:00",351855,1.491,131.3,5.697,1.039,3.779,101.0603,2.005,2.971,69.23,0,109.6,13.6,2.76,93.3
"2010-11-20 01:37:30",351856,2.855,137.6,5.641,1.035,7.363,101.0569,1.996,3.137,69.4,0,109.6,13.6,2.75,99.6
"2010-11-20 01:38:00",351857,2.95,134.3,5.928,1.035,7.251,101.0546,1.99,3.122,69.5,0,109.5,13.6,2.75,96.3
"2010-11-20 01:38:30",351858,2.51,133.8,5.391,1.222,6.237,101.0501,1.979,3.071,69.48,0,109.6,13.6,2.74,95.8
"2010-11-20 01:39:00",351859,2.062,136.7,7.315,1.249,5.01,101.049,1.976,3.031,69.42,0,109.6,13.6,2.73,98.7
"2010-11-20 01:39:30",351860,1.069,132.3,0.703,0.037,2.544,101.0445,1.964,2.85,69.25,0,109.6,13.64,2.72,94.3
"2010-11-20 01:40:00",351861,0.999,135.3,1.457,0.064,2.568,101.0439,1.963,2.843,69.24,0,109.6,13.64,2.72,97.3
"2010-11-20 01:40:30",351862,2.034,141.2,6.818,1.313,4.778,101.0448,1.965,2.872,69.28,0,109.6,13.6,2.72,103.2
"2010-11-20 01:41:00",351863,1.99,144.7,6.451,1.241,6.265,101.0448,1.965,3.138,69.55,0,109.6,13.6,2.72,106.7
"2010-11-20 01:41:30",351864,2.139,144,5.775,1.262,6.263,101.0453,1.966,3.087,69.5,0,109.6,13.6,2.73,106.0
"2010-11-20 01:42:00",351865,2.468,143.1,5.221,1.171,6.64,101.0448,1.965,2.995,69.46,0,109.6,13.6,2.72,105.1
"2010-11-20 01:42:30",351866,1.801,139.6,6.976,1.241,4.9,101.045,1.966,2.964,69.44,0,109.6,13.6,2.72,101.6
"2010-11-20 01:43:00",351867,0.761,131.4,1.177,0.06,2.3,101.0456,1.967,2.829,69.37,0,109.6,13.63,2.73,93.4
"2010-11-20 01:43:30",351868,0.959,128.2,0.918,0.071,2.375,101.0453,1.966,2.812,69.36,0,109.6,13.63,2.73,90.2
"2010-11-20 01:44:00",351869,1.881,131.4,5.159,1.125,3.803,101.0453,1.966,2.855,69.38,0,109.6,13.6,2.73,93.4
"2010-11-20 01:44:30",351870,1.701,129.8,4.09,0.879,3.66,101.0451,1.966,2.903,69.4,0,109.6,13.6,2.72,91.8
"2010-11-20 01:45:00",351871,3.616,142.7,4.091,0.703,8.18,101.0371,1.946,3.125,69.62,0,109.6,13.6,2.70,104.7
"2010-11-20 01:45:30",351872,3.199,144.4,6.258,1.104,7.426,101.0283,1.923,3.055,69.58,0,109.6,13.6,2.68,106.4
"2010-11-20 01:46:00",351873,1.971,140.6,5.798,1.183,4.899,101.0255,1.916,2.988,69.54,0,109.6,13.6,2.67,102.6
"2010-11-20 01:46:30",351874,1.909,140,5.979,1.241,3.853,101.0236,1.911,2.812,69.5,0,109.6,13.6,2.67,102.0
"2010-11-20 01:47:00",351875,0.875,135,0.906,0.057,2.344,101.0188,1.899,2.774,69.54,0,109.6,13.64,2.66,97.0
"2010-11-20 01:47:30",351876,0.701,132.1,1.322,0.039,2.517,101.0182,1.897,2.776,69.6,0,109.6,13.64,2.66,94.1
"2010-11-20 01:48:00",351877,1.14,126.4,6.708,1.045,3.617,101.0162,1.892,2.781,69.67,0,109.6,13.61,2.65,88.4
"2010-11-20 01:48:30",351878,1.992,120.7,5.954,1.295,6.092,101.0142,1.887,3.012,69.95,0,109.6,13.61,2.65,82.7
"2010-11-20 01:49:00",351879,2.344,116.9,6.864,1.209,7.183,101.0151,1.889,2.978,70.03,0,109.6,13.61,2.65,78.9